Moriarty, NM

2:07 AM MST on January 22, 2017 (GMT -0700)
Moriarty

Weather History for K0E0 - April, 2014

Change the Weather History Date:

Monday, April 28, 2014

  Actual Average (KABQ) Record (KABQ)
Temperature  
Mean Temperature 44 °F -  
Max Temperature 58 °F 75 °F 87 °F (1981)
Min Temperature 31 °F 43 °F 27 °F (1918)
Degree Days  
Heating Degree Days 20    
Moisture  
Dew Point 14 °F    
Average Humidity 32    
Maximum Humidity 58    
Minimum Humidity 12    
Precipitation  
Precipitation 0.00 in - - ()
Sea Level Pressure  
Sea Level Pressure 29.91 in    
Wind  
Wind Speed 16 mph (WNW)    
Max Wind Speed 40 mph    
Max Gust Speed 54 mph    
Visibility 10 miles    
Events      
Averages and records for this station are not official NWS values.
T = Trace of Precipitation, MM = Missing Value Source: NWS Daily Summary

Daily Weather History Graph

Daily Weather History Graph

Search for Another Location

Airport or City:

Trip Planner

Search our weather history database for the weather conditions in past years. The results will help you decide how hot, cold, wet, or windy it might be!

Date:

Astronomy

Apr. 28, 2014 Rise Set
Actual Time 6:16 AM MDT 7:47 PM MDT
Civil Twilight 5:49 AM MDT 8:14 PM MDT
Nautical Twilight 5:17 AM MDT 8:46 PM MDT
Astronomical Twilight 4:43 AM MDT 9:20 PM MDT
Moon 5:54 AM MDT (4/28) 7:29 PM MDT (4/28)
Length of Visible Light 14h 24m
Length of Day
13h 30m
Waning Crescent, 0% of the Moon is Illuminated
Apr 28
Waning Crescent
Apr 29
New
May 6
First Quarter
May 14
Full
May 21
Last Quarter

Hourly Weather History & Observations

Time (MDT) Temp. Windchill Dew Point Humidity Pressure Visibility Wind Dir Wind Speed Gust Speed Precip Events Conditions
12:15 AM 39.2 °F 34.2 °F 13.1 °F 34% 29.84 in 10.0 mi NNW 6.9 mph - N/A   Clear
12:35 AM 38.3 °F 33.9 °F 13.5 °F 36% 29.85 in 10.0 mi North 5.8 mph - N/A   Clear
12:55 AM 38.7 °F 33.6 °F 13.3 °F 35% 29.84 in 10.0 mi North 6.9 mph - N/A   Clear
1:15 AM 37.2 °F 33.6 °F 13.3 °F 37% 29.84 in 10.0 mi NNW 4.6 mph - N/A   Clear
1:35 AM 38.1 °F 35.7 °F 13.8 °F 37% 29.84 in 10.0 mi NE 3.5 mph - N/A   Clear
1:55 AM 33.4 °F 29.1 °F 13.3 °F 43% 29.84 in 10.0 mi SSE 4.6 mph - N/A   Clear
2:15 AM 33.4 °F 30.4 °F 13.6 °F 44% 29.85 in 10.0 mi SSE 3.5 mph - N/A   Clear
2:35 AM 33.3 °F 27.9 °F 13.6 °F 44% 29.85 in 10.0 mi South 5.8 mph - N/A   Clear
2:55 AM 33.8 °F 27.0 °F 13.8 °F 44% 29.86 in 10.0 mi South 8.1 mph - N/A   Clear
3:15 AM 34.7 °F 26.9 °F 14.5 °F 44% 29.86 in 10.0 mi SSW 10.4 mph - N/A   Clear
3:35 AM 34.0 °F 26.6 °F 15.3 °F 46% 29.86 in 10.0 mi SW 9.2 mph - N/A   Clear
3:55 AM 34.7 °F 28.1 °F 15.8 °F 46% 29.87 in 10.0 mi SW 8.1 mph - N/A   Clear
4:15 AM 32.4 °F 24.6 °F 15.8 °F 51% 29.87 in 10.0 mi WSW 9.2 mph - N/A   Scattered Clouds
4:35 AM 32.2 °F 23.8 °F 16.9 °F 53% 29.87 in 10.0 mi SW 10.4 mph - N/A   Clear
4:55 AM 32.7 °F 25.0 °F 17.6 °F 54% 29.87 in 10.0 mi WSW 9.2 mph - N/A   Clear
5:15 AM 33.6 °F 26.2 °F 18.0 °F 53% 29.87 in 10.0 mi WSW 9.2 mph - N/A   Scattered Clouds
5:35 AM 32.4 °F 24.6 °F 18.1 °F 56% 29.88 in 10.0 mi WSW 9.2 mph - N/A   Mostly Cloudy
5:55 AM 31.6 °F 25.1 °F 18.5 °F 58% 29.88 in 10.0 mi SW 6.9 mph - N/A   Overcast
6:15 AM 33.3 °F - 18.5 °F 55% 29.90 in 10.0 mi Calm Calm - N/A   Scattered Clouds
6:35 AM 36.3 °F 30.1 °F 20.8 °F 53% 29.90 in 10.0 mi WNW 8.1 mph - N/A   Scattered Clouds
6:55 AM 39.4 °F 33.8 °F 23.0 °F 52% 29.92 in 10.0 mi WNW 8.1 mph - N/A   Overcast
7:15 AM 40.5 °F 33.6 °F 25.3 °F 55% 29.92 in 10.0 mi West 11.5 mph - N/A   Scattered Clouds
7:55 AM 45.3 °F 40.6 °F 26.2 °F 47% 29.92 in 10.0 mi WNW 9.2 mph - N/A   Clear
8:15 AM 47.5 °F - 23.9 °F 40% 29.92 in 10.0 mi WNW 17.3 mph 23.0 mph N/A   Scattered Clouds
8:35 AM 44.8 °F 35.9 °F 21.9 °F 40% 29.92 in 10.0 mi WNW 24.2 mph 33.4 mph N/A   Mostly Cloudy
8:55 AM 45.3 °F 35.5 °F 24.8 °F 45% 29.94 in 10.0 mi WNW 31.1 mph 38.0 mph N/A   Scattered Clouds
9:15 AM 46.6 °F - 25.5 °F 44% 29.94 in 10.0 mi NW 28.8 mph 36.8 mph N/A   Scattered Clouds
9:35 AM 45.7 °F 36.4 °F 26.6 °F 47% 29.95 in 10.0 mi WNW 28.8 mph 41.4 mph N/A   Mostly Cloudy
10:15 AM 47.7 °F - 24.1 °F 40% 29.95 in 10.0 mi NW 32.2 mph 39.1 mph N/A   Scattered Clouds
10:35 AM 48.2 °F - 25.5 °F 41% 29.95 in 10.0 mi WNW 31.1 mph 40.3 mph N/A   Clear
10:55 AM 49.3 °F - 25.2 °F 39% 29.95 in 10.0 mi NW 26.5 mph 38.0 mph N/A   Scattered Clouds
11:15 AM 49.3 °F - 23.9 °F 37% 29.95 in 10.0 mi NW 28.8 mph 36.8 mph N/A   Mostly Cloudy
11:35 AM 50.5 °F - 24.4 °F 36% 29.95 in 10.0 mi WNW 29.9 mph 39.1 mph N/A   Scattered Clouds
11:55 AM 51.1 °F - 23.9 °F 35% 29.94 in 10.0 mi WNW 23.0 mph 38.0 mph N/A   Scattered Clouds
12:15 PM 53.2 °F - 24.1 °F 32% 29.93 in 10.0 mi West 28.8 mph 38.0 mph N/A   Scattered Clouds
12:35 PM 53.8 °F - 21.9 °F 29% 29.92 in 10.0 mi WNW 28.8 mph 42.6 mph N/A   Scattered Clouds
12:55 PM 55.0 °F - 21.2 °F 27% 29.91 in 10.0 mi West 32.2 mph 41.4 mph N/A   Scattered Clouds
1:15 PM 55.4 °F - 21.2 °F 26% 29.90 in 10.0 mi WNW 34.5 mph 43.7 mph N/A   Scattered Clouds
1:35 PM 54.3 °F - 20.5 °F 27% 29.90 in 10.0 mi WNW 28.8 mph 41.4 mph N/A   Scattered Clouds
1:55 PM 56.3 °F - 20.3 °F 25% 29.89 in 10.0 mi WNW 34.5 mph 42.6 mph N/A   Scattered Clouds
2:15 PM 57.2 °F - 20.1 °F 24% 29.89 in 10.0 mi West 35.7 mph 47.2 mph N/A   Scattered Clouds
2:35 PM 56.7 °F - 21.0 °F 25% 29.89 in 10.0 mi WNW 32.2 mph 41.4 mph N/A   Scattered Clouds
2:55 PM 54.0 °F - 21.7 °F 29% 29.89 in 10.0 mi NW 27.6 mph 36.8 mph N/A   Mostly Cloudy
3:15 PM 57.7 °F - 19.4 °F 23% 29.89 in 10.0 mi WNW 35.7 mph 48.3 mph N/A   Scattered Clouds
3:35 PM 57.2 °F - 19.8 °F 23% 29.88 in 10.0 mi WNW 32.2 mph 44.9 mph N/A   Scattered Clouds
3:55 PM 58.5 °F - 14.5 °F 18% 29.87 in 10.0 mi WNW 33.4 mph 44.9 mph N/A   Scattered Clouds
4:15 PM 57.9 °F - 14.0 °F 18% 29.87 in 10.0 mi WNW 35.7 mph 46.0 mph N/A   Scattered Clouds
4:35 PM 57.7 °F - 14.4 °F 18% 29.86 in 10.0 mi WNW 23.0 mph 50.6 mph N/A   Scattered Clouds
4:55 PM 58.1 °F - 11.7 °F 16% 29.86 in 10.0 mi WNW 26.5 mph 44.9 mph N/A   Clear
5:15 PM 57.2 °F - 9.5 °F 15% 29.86 in 10.0 mi WNW 34.5 mph 46.0 mph N/A   Clear
5:35 PM 56.5 °F - 7.0 °F 14% 29.87 in 7.0 mi WNW 39.1 mph 49.5 mph N/A   Clear
5:55 PM 55.4 °F - 5.2 °F 13% 29.88 in 7.0 mi WNW 39.1 mph 54.1 mph N/A   Clear
6:15 PM 54.5 °F - 3.4 °F 13% 29.88 in 10.0 mi WNW 40.3 mph 51.8 mph N/A   Clear
6:35 PM 53.6 °F - 2.5 °F 13% 29.90 in 10.0 mi WNW 35.7 mph 48.3 mph N/A   Clear
6:55 PM 52.0 °F - 1.6 °F 13% 29.90 in 10.0 mi WNW 32.2 mph 42.6 mph N/A   Clear
7:15 PM 50.9 °F - -0.9 °F 12% 29.92 in 10.0 mi WNW 36.8 mph 49.5 mph N/A   Clear
7:35 PM 49.5 °F - -0.6 °F 13% 29.93 in 10.0 mi NW 28.8 mph 41.4 mph N/A   Clear
7:55 PM 47.5 °F - -1.7 °F 13% 29.94 in 10.0 mi NW 26.5 mph 33.4 mph N/A   Clear
8:15 PM 46.8 °F - -2.2 °F 13% 29.96 in 10.0 mi NW 26.5 mph 38.0 mph N/A   Clear
8:55 PM 45.5 °F 35.8 °F -2.6 °F 13% 29.98 in 10.0 mi NW 31.1 mph 38.0 mph N/A   Clear
9:15 PM 45.0 °F 36.9 °F -2.2 °F 14% 30.00 in 10.0 mi NW 20.7 mph 34.5 mph N/A   Clear
9:35 PM 44.2 °F 35.9 °F -2.0 °F 14% 30.01 in 10.0 mi NW 20.7 mph 31.1 mph N/A   Clear
9:55 PM 43.2 °F 35.6 °F -1.3 °F 16% 30.02 in 10.0 mi NW 16.1 mph 25.3 mph N/A   Clear
10:15 PM 43.5 °F 35.2 °F -0.6 °F 16% 30.02 in 10.0 mi NW 19.6 mph 35.7 mph N/A   Clear
10:35 PM 43.0 °F 34.2 °F 0.3 °F 17% 30.02 in 10.0 mi NW 20.7 mph 26.5 mph N/A   Clear
10:55 PM 42.8 °F 33.8 °F 0.7 °F 17% 30.04 in 10.0 mi NW 21.9 mph 32.2 mph N/A   Clear
11:15 PM 41.7 °F 32.6 °F 1.0 °F 18% 30.04 in 10.0 mi NW 20.7 mph 26.5 mph N/A   Clear
11:35 PM 41.2 °F 32.7 °F 1.8 °F 19% 30.05 in 10.0 mi NNW 17.3 mph 23.0 mph N/A   Clear
11:55 PM 40.1 °F 31.3 °F 1.2 °F 20% 30.06 in 10.0 mi NW 17.3 mph 20.7 mph N/A   Clear